Location: Burland Observatory
(39.4088°N, 105.4217°W)
Time: 09:37:12
(UTC-07:00)

SR - Pass Details

Date: 12 December 2019
Orbit: 574 x 882 km, 66.7° (Epoch: 21 January)

Event Time Altitude Azimuth Distance (km) Brightness Sun altitude
Rises 07:55:57 0° 180° (S) 3,188 ? 6.2°
Reaches altitude 10° 07:58:28 10° 171° (S) 2,317 ? 6.6°
Maximum altitude 08:03:11 33° 108° (ESE) 1,356 ? 7.3°
Drops below altitude 10° 08:08:14 10° 47° (NE) 2,482 ? 8.1°
Sets 08:11:00 0° 38° (NE) 3,451 ? 8.5°
